Total_Precipitation_Accumulation
0.04 0.10 0.29 0.49 0.88 1.41 1.42 0.92 0.75 0.51 0.41 0.43 0.34 0.31 0.39 0.59 0.85 1.30 0.97 0.72 0.45 0.43 0.57 0.75 0.82 0.81 0.82 0.87 1.08 1.17 1.18 1.24 1.28 1.33 1.42 1.49 1.50 1.41 1.29 1.27 1.23 1.21 1.16 1.08 1.00 0.98 0.98 0.88 0.87
0.05 0.11 0.27 0.49 1.09 1.63 1.34 0.70 0.48 0.38 0.34 0.37 0.35 0.35 0.51 0.55 0.46 0.62 0.68 0.58 0.33 0.33 0.42 0.47 0.55 0.58 0.64 0.74 0.81 0.90 0.97 0.99 1.09 1.30 1.40 1.43 1.38 1.29 1.22 1.14 1.10 1.08 1.08 1.07 0.99 0.97 0.89 0.76 0.74
0.06 0.12 0.26 0.55 0.97 1.18 0.96 0.56 0.37 0.29 0.35 0.48 0.51 0.42 0.61 0.60 0.48 0.56 0.53 0.33 0.21 0.24 0.33 0.38 0.41 0.42 0.45 0.49 0.57 0.75 0.86 0.93 1.04 1.14 1.19 1.19 1.16 1.15 1.08 1.04 1.07 1.06 1.11 1.15 1.02 0.89 0.76 0.66 0.60
0.04 0.13 0.23 0.44 0.58 0.53 0.50 0.41 0.32 0.31 0.35 0.46 0.56 0.56 0.66 0.50 0.35 0.38 0.35 0.19 0.12 0.20 0.28 0.29 0.30 0.30 0.35 0.39 0.49 0.62 0.72 0.81 0.89 0.92 0.97 1.07 1.16 1.14 1.03 1.04 1.08 1.14 1.16 1.07 0.93 0.78 0.68 0.64 0.55
0.04 0.11 0.22 0.41 0.48 0.45 0.37 0.36 0.33 0.40 0.44 0.52 0.57 0.78 0.82 0.60 0.39 0.31 0.28 0.19 0.09 0.14 0.20 0.22 0.26 0.25 0.28 0.35 0.48 0.61 0.73 0.78 0.75 0.80 1.00 1.13 1.18 1.16 1.13 1.07 1.08 1.09 1.01 0.91 0.86 0.77 0.72 0.62 0.54
0.04 0.07 0.17 0.34 0.40 0.40 0.34 0.29 0.25 0.34 0.49 0.65 0.71 0.83 0.93 0.78 0.56 0.41 0.29 0.23 0.17 0.14 0.20 0.25 0.27 0.25 0.27 0.32 0.41 0.54 0.62 0.69 0.73 0.83 0.93 0.99 1.00 1.02 1.07 1.10 1.11 1.02 0.92 0.81 0.74 0.68 0.67 0.64 0.59
0.02 0.06 0.11 0.25 0.32 0.30 0.27 0.29 0.25 0.30 0.48 0.67 0.70 0.95 1.07 1.01 0.75 0.52 0.42 0.40 0.40 0.28 0.26 0.29 0.33 0.34 0.35 0.42 0.52 0.61 0.65 0.75 0.83 0.87 0.88 0.86 0.86 0.88 0.94 1.02 1.02 0.96 0.82 0.69 0.67 0.60 0.57 0.57 0.58
0.02 0.04 0.07 0.14 0.19 0.26 0.22 0.23 0.25 0.32 0.36 0.47 0.58 0.83 1.09 1.01 0.79 0.71 0.81 0.78 0.84 0.64 0.47 0.40 0.48 0.58 0.55 0.52 0.62 0.70 0.74 0.78 0.84 0.88 0.90 0.94 0.94 0.89 0.90 0.87 0.94 0.93 0.84 0.73 0.70 0.64 0.58 0.61 0.61
0.01 0.05 0.07 0.09 0.12 0.18 0.15 0.21 0.23 0.21 0.26 0.34 0.47 0.66 0.87 0.84 0.79 0.97 1.23 1.11 1.14 0.97 0.68 0.52 0.47 0.61 0.70 0.67 0.67 0.77 0.82 0.84 0.92 1.04 1.08 1.16 1.28 1.17 1.19 1.01 1.05 1.09 1.05 0.99 0.95 0.87 0.80 0.74 0.69
0.01 0.05 0.05 0.05 0.05 0.09 0.13 0.18 0.20 0.24 0.44 0.69 0.81 0.87 0.96 1.18 1.16 1.24 1.33 1.22 1.16 1.12 0.90 0.73 0.64 0.61 0.68 0.70 0.88 1.12 1.08 1.12 1.29 1.51 1.51 1.68 1.77 1.69 1.21 1.21 1.42 1.58 1.62 1.53 1.54 1.47 1.23 1.04 1.00
0.01 0.04 0.04 0.03 0.03 0.05 0.10 0.11 0.16 0.27 0.61 0.95 1.17 1.24 1.27 1.45 1.62 1.67 1.71 1.67 1.54 1.45 1.16 0.91 0.85 0.86 0.84 0.98 0.99 1.18 1.40 1.59 1.66 1.65 1.70 1.87 1.76 1.52 1.29 1.37 1.56 1.72 1.81 1.91 2.18 2.18 1.85 1.83 1.91
0.00 0.01 0.02 0.03 0.02 0.03 0.06 0.08 0.17 0.39 0.77 0.92 1.13 1.27 1.31 1.68 1.78 1.78 2.17 2.23 1.82 1.55 1.47 1.34 1.20 1.19 1.24 1.14 1.25 1.26 1.30 1.46 1.62 1.73 1.71 1.84 2.02 1.91 1.77 1.87 1.86 2.00 2.17 2.56 2.51 2.68 2.53 2.29 2.03
0.00 0.01 0.01 0.01 0.02 0.02 0.04 0.09 0.18 0.37 0.58 0.67 0.86 1.02 1.07 1.58 1.89 2.11 2.59 2.53 2.22 2.02 1.90 1.73 1.68 1.72 1.67 1.62 1.64 1.48 1.47 1.55 1.65 1.77 1.91 1.97 2.06 2.06 2.06 2.15 2.20 1.94 2.06 2.36 2.63 2.54 2.69 2.73 2.52
0.00 0.01 0.01 0.02 0.02 0.03 0.04 0.12 0.23 0.43 0.56 0.77 0.78 0.94 1.16 1.55 1.83 2.24 2.57 2.81 2.66 2.39 2.18 2.02 1.96 2.05 2.11 2.04 2.07 1.99 1.72 1.80 1.76 1.93 2.00 2.09 2.15 2.24 2.38 2.41 2.38 2.09 2.08 2.34 2.55 2.46 2.80 2.74 2.70
0.01 0.02 0.05 0.06 0.05 0.06 0.08 0.25 0.48 0.58 0.69 0.86 0.98 1.07 1.29 1.64 2.12 2.39 2.65 2.95 2.97 2.87 2.69 2.45 2.30 2.46 2.70 2.76 2.66 2.45 2.20 1.99 1.99 2.08 2.12 2.21 2.21 2.39 2.39 2.34 2.35 2.30 2.19 2.40 2.53 2.59 2.74 2.59 2.49
0.02 0.04 0.11 0.12 0.09 0.09 0.15 0.55 0.71 0.60 0.77 0.96 1.05 1.28 1.58 1.96 2.40 2.89 3.04 2.90 2.92 3.06 3.02 2.71 2.48 2.93 3.28 3.31 3.23 2.93 2.59 2.30 2.17 2.21 2.20 2.30 2.33 2.45 2.61 2.41 2.30 2.50 2.44 2.58 2.90 2.88 3.01 3.09 2.97
0.03 0.07 0.11 0.16 0.12 0.12 0.25 0.72 0.70 0.53 0.65 0.84 1.07 1.31 1.73 2.25 2.60 2.77 2.81 2.95 3.08 3.19 3.17 3.08 3.16 3.27 3.40 3.49 3.57 3.28 3.00 2.71 2.40 2.25 2.19 2.24 2.35 2.55 2.91 2.78 2.75 2.72 2.73 2.75 2.47 3.08 3.38 3.40 3.23
0.03 0.05 0.11 0.17 0.14 0.17 0.28 0.54 0.63 0.63 0.79 0.91 1.22 1.43 1.59 1.96 2.41 2.52 2.62 3.07 3.15 3.32 3.44 3.36 3.48 3.61 3.86 4.08 4.23 3.81 3.38 3.03 2.71 2.47 2.45 2.50 2.67 2.81 3.09 2.92 2.85 2.81 2.95 2.93 2.98 3.43 3.39 3.13 3.14
0.02 0.05 0.13 0.17 0.15 0.22 0.32 0.53 0.73 0.81 0.97 1.27 1.47 1.47 1.45 1.75 2.23 2.60 2.85 3.02 3.35 3.53 3.67 3.66 3.88 4.26 4.57 4.43 4.10 3.88 3.59 3.32 3.07 2.80 2.63 2.66 2.63 2.77 3.08 2.93 3.13 3.04 2.91 2.90 2.95 3.23 3.30 3.01 3.18
0.02 0.07 0.15 0.18 0.17 0.28 0.42 0.65 0.83 1.03 1.25 1.35 1.27 1.27 1.42 1.79 2.29 2.66 2.93 3.09 3.35 3.61 4.01 4.10 4.27 4.61 4.73 4.57 4.45 4.27 4.11 3.70 3.55 3.38 3.12 2.76 2.56 2.63 2.72 3.04 2.85 2.86 2.93 2.87 3.00 3.24 3.11 2.71 3.14
0.04 0.08 0.14 0.15 0.23 0.38 0.48 0.89 1.08 1.26 1.39 1.38 1.30 1.49 1.51 1.59 2.01 2.29 2.42 2.61 2.79 2.93 3.19 3.46 3.93 4.38 4.50 4.57 4.48 4.43 4.43 3.93 3.66 3.48 3.22 2.85 2.59 2.50 2.64 2.78 2.81 2.79 2.70 2.78 2.98 3.05 3.07 2.90 2.98
0.06 0.06 0.07 0.11 0.21 0.48 0.55 1.12 1.36 1.57 1.67 1.54 1.46 1.39 1.36 1.59 1.93 1.94 1.80 1.96 2.22 2.22 2.54 2.95 3.37 3.68 3.87 3.98 3.96 3.95 3.87 3.73 3.65 3.49 3.05 2.78 2.52 2.41 2.47 2.54 2.61 2.63 2.50 2.58 2.44 2.56 2.97 3.08 2.83
0.05 0.05 0.08 0.13 0.21 0.43 0.49 0.84 1.36 1.76 1.91 1.54 1.45 1.33 1.38 1.60 1.64 1.60 1.63 1.73 1.90 2.07 2.39 2.70 2.98 3.25 3.41 3.49 3.54 3.60 3.48 3.47 3.38 3.17 2.88 2.60 2.39 2.24 2.08 2.16 2.40 2.44 2.32 2.26 2.28 2.50 2.63 2.65 2.63
0.05 0.08 0.15 0.21 0.38 0.73 0.63 0.75 1.27 1.67 1.53 1.33 1.28 1.09 1.19 1.37 1.46 1.51 1.60 1.73 1.86 2.16 2.52 2.80 3.01 3.21 3.27 3.05 2.94 2.93 2.96 3.02 2.95 2.73 2.50 2.24 2.12 1.99 1.84 1.91 2.13 2.17 2.17 2.14 2.12 2.20 2.32 2.38 2.42
0.08 0.17 0.58 0.95 1.27 1.16 0.73 0.84 1.44 1.34 1.00 0.94 1.04 1.01 1.00 1.05 1.19 1.31 1.50 1.71 1.89 1.99 2.09 2.53 2.94 3.09 3.00 2.75 2.56 2.46 2.55 2.65 2.55 2.39 2.29 2.16 1.95 1.79 1.76 1.80 1.88 1.89 1.94 1.94 2.03 2.09 2.15 2.30 2.38
0.13 0.24 0.70 0.97 1.03 1.01 0.80 1.21 1.72 1.35 0.91 0.77 0.87 0.86 0.76 0.71 0.68 0.78 0.97 1.08 1.18 1.21 1.27 1.44 1.72 1.97 2.06 1.95 1.93 1.96 2.00 2.05 2.02 2.15 2.00 1.97 1.84 1.69 1.71 1.65 1.62 1.66 1.70 1.72 2.01 2.05 2.17 2.31 2.38
0.24 0.29 0.30 0.51 0.70 1.05 1.05 1.24 1.35 1.13 0.89 0.85 0.93 0.84 0.67 0.63 0.58 0.65 0.76 0.76 0.85 0.91 0.98 1.13 1.38 1.61 1.63 1.62 1.62 1.63 1.66 1.69 1.69 1.75 1.68 1.66 1.69 1.61 1.61 1.61 1.70 1.66 1.67 1.76 1.94 1.99 2.04 2.22 2.26
0.20 0.28 0.43 0.68 0.92 1.07 1.13 1.42 1.61 1.44 1.19 1.05 1.00 0.88 0.67 0.55 0.54 0.60 0.70 0.69 0.80 0.97 1.13 1.26 1.36 1.45 1.44 1.41 1.38 1.30 1.42 1.43 1.48 1.45 1.39 1.39 1.46 1.47 1.47 1.49 1.56 1.61 1.61 1.68 1.87 1.91 1.98 2.09 2.10
0.23 0.30 0.46 0.64 0.70 0.91 1.27 1.38 1.15 1.12 1.10 1.15 1.14 0.96 0.72 0.55 0.49 0.55 0.67 0.73 0.81 0.94 1.08 1.21 1.30 1.39 1.36 1.31 1.35 1.39 1.40 1.41 1.40 1.36 1.29 1.34 1.41 1.43 1.42 1.45 1.54 1.59 1.63 1.72 1.82 1.78 1.88 1.89 1.88
0.22 0.33 0.48 0.71 0.77 0.81 0.97 1.10 0.72 0.74 0.86 0.93 0.93 0.75 0.58 0.51 0.49 0.57 0.69 0.73 0.87 0.95 0.99 1.00 1.09 1.27 1.28 1.29 1.40 1.58 1.54 1.51 1.44 1.32 1.25 1.31 1.33 1.37 1.40 1.48 1.56 1.54 1.60 1.76 1.83 1.78 1.82 1.84 1.81